This demonstration page uses our WeatherBlox Daily Observations layout. Learn more.

Left ArrowRight Arrow

44.89941, -97.11507

Hourly Observations for November 24, 2019

Temp ( °F °C ) Dew Point ( °F °C ) Humidity (%) Winds ( mph kmh ) Pressure ( in mb ) Visibility ( mi km ) Precip ( " mm )
12:53 am 00:53 Clear 30 -1.1 25 -3.9 82 82 W 8 13 29.71 1006 10 16 0.00 0.00
1:53 am 01:53 Clear 32 0 26 -3.3 79 79 W 7 11 29.70 1006 10 16 0.00 0.00
2:53 am 02:53 Clear 30 -1.1 25 -3.9 82 82 WSW 7 11 29.70 1006 10 16 0.00 0.00
3:53 am 03:53 Clear 32 0 26 -3.3 79 79 VRB 3 6 29.69 1005 10 16 0.00 0.00
4:53 am 04:53 Clear 34 1.1 27 -2.8 76 76 W 6 9 29.69 1005 10 16 0.00 0.00
5:53 am 05:53 Clear 35 1.7 28 -2.2 76 76 W 10 17 29.69 1006 10 16 0.00 0.00
6:53 am 06:53 Mostly Clear 34 1.1 28 -2.2 79 79 NNW 7 11 29.69 1006 10 16 0.00 0.00
7:53 am 07:53 Cloudy 34 1.1 29 -1.7 82 82 Calm 29.68 1005 10 16 0.00 0.00
8:53 am 08:53 Cloudy 36 2.2 30 -1.1 79 79 Calm 29.67 1005 10 16 0.00 0.00
9:53 am 09:53 Cloudy 38 3.3 31 -0.6 76 76 SW 6 9 29.67 1005 10 16 0.00 0.00
10:53 am 10:53 Partly Cloudy 40 4.4 31 -0.6 70 70 SSW 7 11 29.65 1004 10 16 0.00 0.00
11:53 am 11:53 Cloudy 44 6.7 32 0 63 63 SW 7 11 29.62 1003 10 16 0.00 0.00
12:53 pm 12:53 Mostly Cloudy 45 7.2 32 0 61 61 SSW 10 17 29.59 1002 10 16 0.00 0.00
1:53 pm 13:53 Sunny 49 9.4 32 0 52 52 SW 15 24 29.56 1001 10 16 0.00 0.00
2:53 pm 14:53 Sunny 50 10 34 1.1 54 54 SW 16 26 29.55 1001 10 16 0.00 0.00
3:53 pm 15:53 Sunny 47 8.3 35 1.7 63 63 SSW 9 15 29.53 1000 10 16 0.00 0.00
4:53 pm 16:53 Clear 40 4.4 33 0.6 77 77 S 5 7 29.52 1000 10 16 0.00 0.00
5:53 pm 17:53 Clear 42 5.6 34 1.1 73 73 SSW 10 17 29.51 999 10 16 0.00 0.00
6:53 pm 18:53 Clear 39 3.9 33 0.6 79 79 SW 10 17 29.51 999 10 16 0.00 0.00
7:53 pm 19:53 Clear 36 2.2 30 -1.1 79 79 SSW 10 17 29.50 999 10 16 0.00 0.00
8:53 pm 20:53 Clear 36 2.2 30 -1.1 79 79 SSW 10 17 29.49 999 10 16 0.00 0.00
9:53 pm 21:53 Clear 34 1.1 29 -1.7 82 82 SW 9 15 29.48 998 10 16 0.00 0.00
10:53 pm 22:53 Mostly Cloudy 39 3.9 30 -1.1 70 70 WSW 13 20 29.48 998 10 16 0.00 0.00
11:53 pm 23:53 Mostly Clear 39 3.9 30 -1.1 70 70 WSW 12 19 29.48 998 10 16 0.00 0.00

Powered by AerisWeather